Flag for China Weather past 2 weeks in Changchun, Jilin, China

Now
66 °F

Fog.


Feels Like: 66 °F
Forecast: 54 / 71 °F
Wind: 17 mph from Southwest

Location: Changchun Airport

Current Time: May 29, 2015 at 5:16:25 PM

Latest Report: May 29, 2015 at 4:00 PM


Visibility: 3 mi

Pressure: 29.62 "Hg

Humidity: 73%

Dew point: 57 °F

Location of ChangchunLocation

Historic Weather in Changchun — Graph

°F

Changchun temperature yesterday

Maximum temperature yesterday: 82 °F (at 12:00 PM)
Minimum temperature yesterday: 66 °F (at 5:00 AM)
Average temperature yesterday: 74 °F

Past Weeks' High & Low Weather Summary

 TemperatureHumidityPressure
High91 °F (May 24, 2:00 PM)100% (May 17, 11:00 PM)29.89 "Hg (May 17, 11:00 PM)
Low45 °F (May 20, 4:00 AM)11% (May 22, 2:00 PM)29.45 "Hg (May 18, 12:00 AM)
Average65 °F49%29.65 "Hg
* Reported May 14 4:00 PM — May 29 4:00 PM, Changchun, Weather by CustomWeather, © 2015

Note: Actual official high and low records may vary slightly from our data, if they occured in-between our weather recording intervals... More about our weather records

Advertising

Changchun weather history for previous 24 hours

 ConditionsComfort  
Time TempWeatherWind HumidityBarometerVisibility
4:00 PM
Fri, May 29
66 °FFog.17 mph73%29.62 "Hg3 mi
3:00 PM66 °FFog.17 mph73%29.62 "Hg3 mi
2:00 PM66 °FSprinkles. Fog.17 mph78%29.62 "Hg3 mi
1:00 PM66 °FSprinkles. Partly sunny.15 mph73%29.62 "Hg4 mi
12:00 PM64 °FSprinkles. Fog.20 mph83%29.62 "Hg3 mi
11:00 AM64 °FSprinkles. Fog.15 mph78%29.65 "Hg3 mi
10:00 AM61 °FSprinkles. Fog.15 mph88%29.65 "Hg2 mi
9:00 AM63 °FSprinkles. Broken clouds.20 mph77%29.65 "Hg4 mi
8:00 AM63 °FSprinkles. Broken clouds.22 mph73%29.62 "Hg4 mi
7:00 AM64 °FSprinkles. Broken clouds.15 mph60%29.65 "Hg4 mi
6:00 AM68 °FSprinkles. Partly sunny.13 mph40%29.65 "HgN/A
5:00 AM68 °FOvercast.15 mph33%29.65 "HgN/A
4:00 AM68 °FPassing clouds.15 mph33%29.62 "HgN/A
3:00 AM70 °FPassing clouds.17 mph31%29.59 "HgN/A
2:00 AM70 °FPassing clouds.17 mph33%29.62 "HgN/A
1:00 AM70 °FPassing clouds.15 mph33%29.62 "HgN/A
12:00 AM70 °FPassing clouds.13 mph33%29.62 "HgN/A
11:00 PM
Thu, May 28
72 °FPassing clouds.13 mph33%29.65 "HgN/A
10:00 PM72 °FPassing clouds.10 mph31%29.65 "HgN/A
9:00 PM73 °FPassing clouds.10 mph29%29.65 "HgN/A
8:00 PM73 °FPassing clouds.13 mph27%29.65 "HgN/A
7:00 PM77 °FScattered clouds.13 mph21%29.62 "HgN/A
6:00 PM79 °FScattered clouds.20 mph20%29.62 "HgN/A
5:00 PM81 °FScattered clouds.22 mph21%29.62 "HgN/A
Weather by CustomWeather, © 2015

See weather overviewHow to use our weather pages